This is the latest recevied weather packets stored in our database for station/object N1TKS. If no packets are shown the sender has not sent any weather packets the latest 10 day(s).
| Time | Temp. | Humidity | Pressure | Rain* | Wind** | Luminosity | Snow |
|---|---|---|---|---|---|---|---|
| 1778137015 | 11.67° C | 88% | 1009.6 hPa | 1.52 mm | - | - | - |
| 1778136160 | 12.22° C | 86% | 1009.1 hPa | 1.52 mm | - | - | - |
| 1778135867 | 11.67° C | 87% | 1009.4 hPa | 1.78 mm | - | - | - |
| 1778135814 | 11.67° C | 87% | 1009.4 hPa | 1.78 mm | - | - | - |
| 1778135519 | 12.22° C | 87% | 1008.8 hPa | 1.78 mm | - | - | - |
| 1778135259 | 12.22° C | 87% | 1008.5 hPa | 1.78 mm | - | - | - |
| 1778135215 | 12.22° C | 87% | 1008.5 hPa | 1.78 mm | - | - | - |
| 1778134766 | 12.22° C | 86% | 1009.3 hPa | 1.52 mm | - | - | - |
| 1778134663 | 12.22° C | 86% | 1009.3 hPa | 1.52 mm | - | - | - |
| 1778134614 | 12.22° C | 86% | 1009.3 hPa | 1.52 mm | - | - | - |
| 1778134432 | 12.22° C | 86% | 1009.1 hPa | 1.52 mm | - | - | - |
| 1778134315 | 12.22° C | 86% | 1009.1 hPa | 1.52 mm | - | - | - |
| 1778134246 | 12.78° C | 84% | 1008.5 hPa | 0.25 mm | - | - | - |
| 1778133714 | 12.78° C | 85% | 1008.9 hPa | 0.76 mm | - | - | - |
| 1778133417 | 12.78° C | 85% | 1009 hPa | 0.51 mm | - | - | - |
| 1778133114 | 12.78° C | 84% | 1009 hPa | 0.25 mm | - | - | - |
| 1778132815 | 12.78° C | 84% | 1008.5 hPa | 0.25 mm | - | - | - |
| 1778131916 | 13.33° C | 84% | 1008.6 hPa | 0 mm | - | - | - |
| 1778130409 | 13.33° C | 84% | 1008.8 hPa | 0 mm | - | - | - |
| 1778130114 | 13.33° C | 85% | 1008.6 hPa | 0 mm | - | - | - |
| 1778129814 | 13.33° C | 85% | 1008.7 hPa | 0 mm | - | - | - |
| 1778128986 | 13.33° C | 84% | 1008.8 hPa | 0 mm | - | - | - |
| 1778128915 | 13.33° C | 84% | 1008.8 hPa | 0 mm | - | - | - |
| 1778128021 | 13.33° C | 85% | 1008.9 hPa | 0 mm | - | - | - |
| 1778127121 | 13.33° C | 85% | 1008.9 hPa | 0 mm | - | - | - |
* Rain latest hour (hover to see other rain measurements)
** Current wind speed in m/s (hover to see current wind gust speed)